Time,TemperatureF,DewpointF,PressureIn,WindDirection,WindDirectionDegrees,WindSpeedMPH,WindSpeedGustMPH,Humidity,HourlyPrecipIn,Conditions,Clouds,dailyrainin,SoftwareType,DateUTC
2013-04-28 00:02:00,55.2,49.1,30.17,NE,45,0.0,0.0,80,0.00,,,0.00,WUHU21623XXSP,2013-04-28 04:02:00,
2013-04-28 00:07:00,55.2,49.1,30.17,NE,45,0.0,0.0,80,0.00,,,0.00,WUHU21623XXSP,2013-04-28 04:07:00,
2013-04-28 00:12:00,55.2,49.1,30.17,NE,45,0.0,0.0,80,0.00,,,0.00,WUHU21623XXSP,2013-04-28 04:12:00,
2013-04-28 00:17:00,55.0,49.0,30.17,NE,45,0.0,0.0,80,0.00,,,0.00,WUHU21623XXSP,2013-04-28 04:17:00,
2013-04-28 00:22:00,55.0,49.1,30.17,NE,45,0.0,0.0,80,0.00,,,0.00,WUHU21623XXSP,2013-04-28 04:22:00,
2013-04-28 00:27:00,55.2,49.1,30.17,NE,45,0.0,0.0,80,0.00,,,0.00,WUHU21623XXSP,2013-04-28 04:27:00,
2013-04-28 00:32:00,55.2,49.1,30.16,NE,45,0.0,0.0,80,0.00,,,0.00,WUHU21623XXSP,2013-04-28 04:32:00,
2013-04-28 00:37:00,55.0,49.0,30.16,NE,45,3.4,3.4,80,0.00,,,0.00,WUHU21623XXSP,2013-04-28 04:37:00,
2013-04-28 00:42:00,55.2,49.1,30.16,NE,45,3.4,3.4,80,0.00,,,0.00,WUHU21623XXSP,2013-04-28 04:42:00,
2013-04-28 00:47:00,55.2,49.1,30.17,NE,45,3.4,3.4,79,0.00,,,0.00,WUHU21623XXSP,2013-04-28 04:47:00,
2013-04-28 00:52:00,55.2,48.8,30.16,NE,45,3.8,3.8,79,0.00,,,0.00,WUHU21623XXSP,2013-04-28 04:52:00,
2013-04-28 00:57:00,55.2,48.8,30.17,NE,45,0.0,3.8,79,0.00,,,0.00,WUHU21623XXSP,2013-04-28 04:57:00,
2013-04-28 01:02:00,55.2,48.8,30.17,NE,45,0.0,0.0,79,0.00,,,0.00,WUHU21623XXSP,2013-04-28 05:02:00,
2013-04-28 01:07:00,55.2,48.8,30.17,NE,45,0.0,0.0,79,0.00,,,0.00,WUHU21623XXSP,2013-04-28 05:07:00,
2013-04-28 01:12:00,55.2,48.8,30.17,NE,45,0.0,0.0,79,0.00,,,0.00,WUHU21623XXSP,2013-04-28 05:12:00,
2013-04-28 01:17:00,55.2,48.8,30.16,NE,45,0.0,0.0,79,0.00,,,0.00,WUHU21623XXSP,2013-04-28 05:17:00,
2013-04-28 01:22:00,55.2,48.8,30.16,NE,45,0.0,0.0,79,0.00,,,0.00,WUHU21623XXSP,2013-04-28 05:22:00,
2013-04-28 01:27:00,55.2,48.8,30.15,NE,45,0.0,0.0,79,0.00,,,0.00,WUHU21623XXSP,2013-04-28 05:27:00,
2013-04-28 01:32:00,55.2,48.8,30.15,NE,45,0.0,0.4,79,0.00,,,0.00,WUHU21623XXSP,2013-04-28 05:32:00,
2013-04-28 01:37:00,55.2,48.8,30.15,NE,45,0.0,0.4,79,0.00,,,0.00,WUHU21623XXSP,2013-04-28 05:37:00,
2013-04-28 01:42:00,55.2,48.8,30.14,NE,45,0.0,0.0,79,0.00,,,0.00,WUHU21623XXSP,2013-04-28 05:42:00,
2013-04-28 01:47:00,55.2,49.1,30.14,NE,45,2.2,2.2,80,0.00,,,0.00,WUHU21623XXSP,2013-04-28 05:47:00,
2013-04-28 01:52:00,55.2,49.1,30.14,NE,45,0.0,2.2,80,0.00,,,0.00,WUHU21623XXSP,2013-04-28 05:52:00,
2013-04-28 01:57:00,55.2,49.1,30.14,NE,45,0.0,0.0,80,0.00,,,0.00,WUHU21623XXSP,2013-04-28 05:57:00,
2013-04-28 02:02:00,55.2,49.1,30.14,NE,45,0.0,0.0,80,0.00,,,0.00,WUHU21623XXSP,2013-04-28 06:02:00,
2013-04-28 02:07:00,55.2,49.1,30.14,NE,45,0.0,0.0,80,0.00,,,0.00,WUHU21623XXSP,2013-04-28 06:07:00,
2013-04-28 02:12:00,55.2,49.1,30.14,NE,45,0.0,0.0,80,0.00,,,0.00,WUHU21623XXSP,2013-04-28 06:12:00,
2013-04-28 02:17:00,55.2,49.1,30.15,NE,45,0.0,0.0,80,0.00,,,0.00,WUHU21623XXSP,2013-04-28 06:17:00,
2013-04-28 02:22:00,55.2,49.4,30.15,NE,45,0.0,0.0,81,0.00,,,0.00,WUHU21623XXSP,2013-04-28 06:22:00,
2013-04-28 02:27:00,55.2,49.4,30.15,NE,45,0.0,0.0,81,0.00,,,0.00,WUHU21623XXSP,2013-04-28 06:27:00,
2013-04-28 02:32:00,55.0,49.3,30.15,NE,45,0.0,0.0,81,0.00,,,0.00,WUHU21623XXSP,2013-04-28 06:32:00,
2013-04-28 02:37:00,54.9,49.1,30.15,NE,45,0.0,0.0,81,0.00,,,0.00,WUHU21623XXSP,2013-04-28 06:37:00,
2013-04-28 02:42:00,54.7,48.9,30.16,NE,45,0.0,0.0,81,0.00,,,0.00,WUHU21623XXSP,2013-04-28 06:42:00,
2013-04-28 02:47:00,54.5,48.8,30.15,NE,45,0.0,0.0,81,0.00,,,0.00,WUHU21623XXSP,2013-04-28 06:47:00,
2013-04-28 02:52:00,54.5,49.1,30.15,NE,45,0.0,0.0,82,0.00,,,0.00,WUHU21623XXSP,2013-04-28 06:52:00,
2013-04-28 02:57:00,54.3,48.9,30.15,NE,45,0.0,0.0,82,0.00,,,0.00,WUHU21623XXSP,2013-04-28 06:57:00,
2013-04-28 03:02:00,54.3,48.9,30.14,NE,45,0.0,0.0,82,0.00,,,0.00,WUHU21623XXSP,2013-04-28 07:02:00,
2013-04-28 03:07:00,54.3,48.9,30.13,NE,45,0.0,0.0,82,0.00,,,0.00,WUHU21623XXSP,2013-04-28 07:07:00,
2013-04-28 03:12:00,54.3,48.9,30.14,NE,45,0.0,0.0,82,0.00,,,0.00,WUHU21623XXSP,2013-04-28 07:12:00,
2013-04-28 03:17:00,54.3,48.9,30.14,NE,45,0.0,0.0,82,0.00,,,0.00,WUHU21623XXSP,2013-04-28 07:17:00,
2013-04-28 03:22:00,54.1,49.1,30.14,NE,45,2.0,2.0,83,0.00,,,0.00,WUHU21623XXSP,2013-04-28 07:22:00,
2013-04-28 03:27:00,54.0,49.1,30.13,NE,45,0.0,2.0,83,0.00,,,0.00,WUHU21623XXSP,2013-04-28 07:27:00,
2013-04-28 03:33:00,53.8,49.0,30.12,NE,45,0.0,0.0,84,0.00,,,0.00,WUHU21623XXSP,2013-04-28 07:33:00,
2013-04-28 03:38:00,53.8,49.0,30.12,NE,45,0.0,0.0,84,0.00,,,0.00,WUHU21623XXSP,2013-04-28 07:38:00,
2013-04-28 03:43:00,53.4,48.7,30.13,NE,45,0.0,0.0,84,0.00,,,0.00,WUHU21623XXSP,2013-04-28 07:43:00,
2013-04-28 03:48:00,53.4,48.7,30.13,NE,45,0.0,0.0,84,0.02,,,0.02,WUHU21623XXSP,2013-04-28 07:48:00,
2013-04-28 03:53:00,53.2,48.8,30.12,NE,45,0.0,0.0,85,0.02,,,0.02,WUHU21623XXSP,2013-04-28 07:53:00,
2013-04-28 03:58:00,53.2,48.8,30.12,NE,45,0.0,0.0,85,0.04,,,0.04,WUHU21623XXSP,2013-04-28 07:58:00,
2013-04-28 04:03:00,53.2,48.8,30.12,NE,45,0.0,0.0,85,0.06,,,0.06,WUHU21623XXSP,2013-04-28 08:03:00,
2013-04-28 04:08:00,53.1,49.0,30.12,NE,45,0.0,0.0,86,0.06,,,0.06,WUHU21623XXSP,2013-04-28 08:08:00,
2013-04-28 04:13:00,52.9,48.8,30.12,NE,45,0.0,0.0,86,0.06,,,0.06,WUHU21623XXSP,2013-04-28 08:13:00,
2013-04-28 04:18:00,52.9,48.8,30.12,NE,45,0.0,0.0,86,0.06,,,0.06,WUHU21623XXSP,2013-04-28 08:18:00,
2013-04-28 04:23:00,52.9,48.8,30.11,NE,45,0.0,0.0,86,0.06,,,0.06,WUHU21623XXSP,2013-04-28 08:23:00,
2013-04-28 04:28:00,52.9,48.8,30.11,NE,45,0.0,0.0,86,0.06,,,0.06,WUHU21623XXSP,2013-04-28 08:28:00,
2013-04-28 04:33:00,52.9,48.8,30.11,NE,45,0.0,0.0,86,0.06,,,0.06,WUHU21623XXSP,2013-04-28 08:33:00,
2013-04-28 04:38:00,52.9,48.8,30.11,NE,45,0.0,0.0,86,0.06,,,0.06,WUHU21623XXSP,2013-04-28 08:38:00,
2013-04-28 04:43:00,52.9,48.8,30.10,NE,45,0.0,2.0,86,0.04,,,0.06,WUHU21623XXSP,2013-04-28 08:43:00,
2013-04-28 04:48:00,52.9,48.8,30.10,NE,45,0.0,2.0,86,0.04,,,0.06,WUHU21623XXSP,2013-04-28 08:48:00,
2013-04-28 04:53:00,52.9,48.8,30.11,NE,45,0.0,0.0,86,0.02,,,0.06,WUHU21623XXSP,2013-04-28 08:53:00,
2013-04-28 04:58:00,52.9,49.1,30.11,NE,45,0.0,0.0,87,0.02,,,0.06,WUHU21623XXSP,2013-04-28 08:58:00,
2013-04-28 05:03:00,52.9,49.1,30.11,NE,45,0.0,0.0,87,0.00,,,0.06,WUHU21623XXSP,2013-04-28 09:03:00,
2013-04-28 05:08:00,52.9,49.1,30.11,NE,45,0.0,0.0,87,0.00,,,0.06,WUHU21623XXSP,2013-04-28 09:08:00,
2013-04-28 05:13:00,52.9,49.1,30.10,NE,45,0.0,0.0,87,0.00,,,0.06,WUHU21623XXSP,2013-04-28 09:13:00,
2013-04-28 05:18:00,52.9,49.1,30.10,NE,45,0.0,0.0,87,0.00,,,0.06,WUHU21623XXSP,2013-04-28 09:18:00,
2013-04-28 05:23:00,52.9,49.1,30.11,NE,45,0.0,0.0,87,0.00,,,0.06,WUHU21623XXSP,2013-04-28 09:23:00,
2013-04-28 05:28:00,52.9,49.1,30.10,NE,45,0.0,0.0,87,0.00,,,0.06,WUHU21623XXSP,2013-04-28 09:28:00,
2013-04-28 05:33:00,52.9,49.1,30.10,NE,45,0.0,0.0,87,0.00,,,0.06,WUHU21623XXSP,2013-04-28 09:33:00,
2013-04-28 05:38:00,52.9,49.1,30.10,NE,45,0.0,0.0,87,0.00,,,0.06,WUHU21623XXSP,2013-04-28 09:38:00,
2013-04-28 05:43:00,52.9,49.1,30.10,NE,45,0.0,0.0,87,0.00,,,0.06,WUHU21623XXSP,2013-04-28 09:43:00,
2013-04-28 05:48:00,52.9,49.1,30.10,NE,45,0.0,0.0,87,0.00,,,0.06,WUHU21623XXSP,2013-04-28 09:48:00,
2013-04-28 05:53:00,52.9,49.1,30.09,NE,45,0.0,0.0,87,0.00,,,0.06,WUHU21623XXSP,2013-04-28 09:53:00,
2013-04-28 05:58:00,52.7,49.1,30.10,NE,45,0.0,0.0,87,0.02,,,0.08,WUHU21623XXSP,2013-04-28 09:58:00,
2013-04-28 06:03:00,52.7,48.9,30.10,NE,45,0.0,0.0,87,0.02,,,0.08,WUHU21623XXSP,2013-04-28 10:03:00,
2013-04-28 06:08:00,52.7,48.9,30.10,NE,45,0.0,0.0,87,0.02,,,0.08,WUHU21623XXSP,2013-04-28 10:08:00,
2013-04-28 06:13:00,52.7,48.9,30.10,NE,45,0.0,0.4,87,0.02,,,0.08,WUHU21623XXSP,2013-04-28 10:13:00,
2013-04-28 06:18:00,52.7,48.9,30.10,NE,45,0.0,0.4,87,0.02,,,0.08,WUHU21623XXSP,2013-04-28 10:18:00,
2013-04-28 06:23:00,52.7,48.9,30.09,NE,45,0.0,0.0,87,0.02,,,0.08,WUHU21623XXSP,2013-04-28 10:23:00,
2013-04-28 06:28:00,52.7,49.2,30.09,NE,45,0.0,0.0,88,0.02,,,0.08,WUHU21623XXSP,2013-04-28 10:28:00,
2013-04-28 06:33:00,52.7,49.2,30.09,NE,45,0.0,0.0,88,0.02,,,0.08,WUHU21623XXSP,2013-04-28 10:33:00,
2013-04-28 06:38:00,52.7,49.2,30.09,NE,45,0.0,0.0,88,0.02,,,0.08,WUHU21623XXSP,2013-04-28 10:38:00,
2013-04-28 06:43:00,52.7,49.2,30.09,NE,45,0.0,0.0,88,0.02,,,0.08,WUHU21623XXSP,2013-04-28 10:43:00,
2013-04-28 06:48:00,52.7,49.2,30.08,NE,45,0.0,0.0,88,0.02,,,0.08,WUHU21623XXSP,2013-04-28 10:48:00,
2013-04-28 06:53:00,52.7,49.2,30.08,NE,45,0.0,0.0,88,0.00,,,0.08,WUHU21623XXSP,2013-04-28 10:53:00,
2013-04-28 06:58:00,52.9,49.4,30.08,NE,45,0.0,0.0,88,0.00,,,0.08,WUHU21623XXSP,2013-04-28 10:58:00,
2013-04-28 07:03:00,52.9,49.4,30.09,NE,45,0.0,0.0,88,0.00,,,0.08,WUHU21623XXSP,2013-04-28 11:03:00,
2013-04-28 07:08:00,52.9,49.4,30.14,West,270,2.0,2.0,88,0.00,,,0.08,WUHU21623XXSP,2013-04-28 11:08:00,
2013-04-28 07:13:00,52.9,49.4,30.15,West,270,0.0,6.0,88,0.00,,,0.08,WUHU21623XXSP,2013-04-28 11:13:00,
2013-04-28 07:18:00,52.9,49.4,30.16,WSW,247,0.0,6.0,88,0.02,,,0.08,WUHU21623XXSP,2013-04-28 11:18:00,
2013-04-28 07:23:00,52.9,49.4,30.16,West,270,0.0,1.8,88,0.10,,,0.18,WUHU21623XXSP,2013-04-28 11:23:00,
2013-04-28 07:28:00,52.7,49.5,30.17,NNW,337,0.0,0.0,89,0.18,,,0.24,WUHU21623XXSP,2013-04-28 11:28:00,
2013-04-28 07:33:00,52.7,49.5,30.16,NNW,337,0.0,0.0,89,0.20,,,0.26,WUHU21623XXSP,2013-04-28 11:33:00,
2013-04-28 07:38:00,52.7,49.5,30.15,NNW,337,0.0,0.0,89,0.26,,,0.34,WUHU21623XXSP,2013-04-28 11:38:00,
2013-04-28 07:43:00,52.7,49.5,30.15,NNW,337,0.0,0.0,89,0.29,,,0.34,WUHU21623XXSP,2013-04-28 11:43:00,
2013-04-28 07:48:00,52.7,49.5,30.15,NNW,337,0.0,0.0,89,0.31,,,0.39,WUHU21623XXSP,2013-04-28 11:48:00,
2013-04-28 07:54:00,52.7,49.5,30.15,NNW,337,0.0,0.0,89,0.33,,,0.39,WUHU21623XXSP,2013-04-28 11:54:00,
2013-04-28 07:59:00,52.7,49.5,30.15,NNW,337,0.0,0.0,89,0.33,,,0.41,WUHU21623XXSP,2013-04-28 11:59:00,
2013-04-28 08:04:00,52.5,49.5,30.14,NNW,337,0.0,0.0,89,0.35,,,0.41,WUHU21623XXSP,2013-04-28 12:04:00,
2013-04-28 08:09:00,52.5,49.3,30.12,NNW,337,0.0,0.0,89,0.35,,,0.43,WUHU21623XXSP,2013-04-28 12:09:00,
2013-04-28 08:14:00,52.5,49.3,30.13,NNW,337,0.0,0.0,89,0.35,,,0.43,WUHU21623XXSP,2013-04-28 12:14:00,
2013-04-28 08:19:00,52.5,49.3,30.13,NNW,337,0.0,0.0,89,0.35,,,0.43,WUHU21623XXSP,2013-04-28 12:19:00,
2013-04-28 08:22:00,52.5,49.3,30.13,NNW,338,0.0,0.0,89,0.00,,,0.00,WUHU21623XXSP,2013-04-28 12:22:00,
2013-04-28 09:22:00,52.3,49.1,30.14,North,0,0.0,0.0,89,0.00,,,0.00,WUHU21623XXSP,2013-04-28 13:22:00,
2013-04-28 10:22:00,52.2,49.3,30.13,North,0,0.0,0.0,90,0.00,,,0.22,WUHU21623XXSP,2013-04-28 14:22:00,
2013-04-28 10:46:00,52.3,49.5,30.13,North,0,0.0,0.0,90,0.22,,,0.53,WUHU21623XXSP,2013-04-28 14:46:00,
2013-04-28 10:51:00,52.2,49.3,30.13,North,0,0.0,0.0,90,0.18,,,2.55,WUHU21623XXSP,2013-04-28 14:51:00,
2013-04-28 10:56:00,52.2,49.5,30.13,North,0,0.0,0.0,90,0.18,,,2.57,WUHU21623XXSP,2013-04-28 14:56:00,
2013-04-28 11:01:00,52.2,49.3,30.14,North,0,0.0,0.0,90,0.16,,,2.57,WUHU21623XXSP,2013-04-28 15:01:00,
2013-04-28 11:06:00,52.2,49.3,30.12,North,0,0.0,0.0,90,0.14,,,2.57,WUHU21623XXSP,2013-04-28 15:06:00,
2013-04-28 11:11:00,52.3,49.5,30.12,North,0,0.0,0.0,90,0.14,,,2.59,WUHU21623XXSP,2013-04-28 15:11:00,
2013-04-28 11:16:00,52.3,49.5,30.13,North,0,0.0,0.0,90,0.12,,,2.59,WUHU21623XXSP,2013-04-28 15:16:00,
2013-04-28 11:21:00,52.3,49.5,30.12,North,0,0.0,0.0,90,0.10,,,2.59,WUHU21623XXSP,2013-04-28 15:21:00,
2013-04-28 11:26:00,52.3,49.5,30.12,North,0,0.0,0.0,90,0.08,,,2.59,WUHU21623XXSP,2013-04-28 15:26:00,
2013-04-28 11:31:00,52.5,49.6,30.12,North,0,0.0,0.0,90,0.10,,,2.61,WUHU21623XXSP,2013-04-28 15:31:00,
2013-04-28 11:37:00,52.5,49.6,30.12,North,0,0.0,0.0,90,0.08,,,2.61,WUHU21623XXSP,2013-04-28 15:37:00,
2013-04-28 11:42:00,52.7,49.8,30.12,North,0,0.0,0.0,90,0.06,,,2.61,WUHU21623XXSP,2013-04-28 15:42:00,
2013-04-28 11:47:00,52.9,50.0,30.12,North,0,0.0,0.0,90,0.06,,,2.61,WUHU21623XXSP,2013-04-28 15:47:00,
2013-04-28 11:52:00,52.9,50.0,30.11,North,0,0.0,0.0,90,0.06,,,2.61,WUHU21623XXSP,2013-04-28 15:52:00,
2013-04-28 11:57:00,53.1,50.2,30.11,North,0,0.0,0.0,90,0.04,,,2.61,WUHU21623XXSP,2013-04-28 15:57:00,
2013-04-28 12:02:00,53.2,50.4,30.11,North,0,0.0,0.0,90,0.06,,,2.61,WUHU21623XXSP,2013-04-28 16:02:00,
2013-04-28 12:07:00,53.4,50.2,30.12,North,0,0.0,0.0,89,0.06,,,2.63,WUHU21623XXSP,2013-04-28 16:07:00,
2013-04-28 12:12:00,53.4,50.2,30.11,North,0,0.0,0.0,89,0.04,,,2.63,WUHU21623XXSP,2013-04-28 16:12:00,
2013-04-28 12:17:00,53.4,50.2,30.11,North,0,0.0,0.0,89,0.04,,,2.63,WUHU21623XXSP,2013-04-28 16:17:00,
2013-04-28 12:22:00,53.4,50.2,30.11,North,0,0.0,0.0,89,0.06,,,2.65,WUHU21623XXSP,2013-04-28 16:22:00,
2013-04-28 12:27:00,53.4,50.2,30.10,North,0,0.0,0.0,89,0.06,,,2.65,WUHU21623XXSP,2013-04-28 16:27:00,
2013-04-28 12:32:00,53.4,50.2,30.09,North,0,0.0,0.0,89,0.06,,,2.67,WUHU21623XXSP,2013-04-28 16:32:00,
2013-04-28 12:37:00,53.6,50.4,30.09,North,0,0.0,0.0,89,0.06,,,2.67,WUHU21623XXSP,2013-04-28 16:37:00,
2013-04-28 12:42:00,53.8,50.9,30.10,North,0,0.0,0.0,90,0.08,,,2.69,WUHU21623XXSP,2013-04-28 16:42:00,
2013-04-28 12:47:00,54.1,51.3,30.10,North,0,0.0,0.0,90,0.08,,,2.69,WUHU21623XXSP,2013-04-28 16:47:00,
2013-04-28 12:52:00,54.1,51.3,30.10,North,0,0.0,0.0,90,0.08,,,2.69,WUHU21623XXSP,2013-04-28 16:52:00,
2013-04-28 12:57:00,54.1,51.3,30.09,North,0,0.0,0.0,90,0.10,,,2.71,WUHU21623XXSP,2013-04-28 16:57:00,
2013-04-28 13:02:00,54.1,51.3,30.09,North,0,0.0,0.0,90,0.08,,,2.71,WUHU21623XXSP,2013-04-28 17:02:00,
2013-04-28 13:07:00,54.1,51.3,30.09,North,0,0.0,0.0,90,0.08,,,2.71,WUHU21623XXSP,2013-04-28 17:07:00,
2013-04-28 13:12:00,54.3,51.4,30.09,North,0,0.0,0.0,90,0.08,,,2.71,WUHU21623XXSP,2013-04-28 17:12:00,
2013-04-28 13:17:00,54.3,51.4,30.09,North,0,0.0,0.0,90,0.08,,,2.71,WUHU21623XXSP,2013-04-28 17:17:00,
2013-04-28 13:22:00,54.3,51.4,30.09,North,0,0.0,0.0,90,0.08,,,2.73,WUHU21623XXSP,2013-04-28 17:22:00,
2013-04-28 13:27:00,54.1,51.3,30.09,North,0,0.0,0.0,90,0.10,,,2.73,WUHU21623XXSP,2013-04-28 17:27:00,
2013-04-28 13:30:00,54.1,50.9,30.09,North,0,0.0,0.0,89,0.10,,,2.77,WUHU21623XXSP,2013-04-28 17:30:00,
2013-04-28 13:45:00,54.3,51.1,30.09,North,0,0.0,0.0,89,0.10,,,2.79,WUHU21623XXSP,2013-04-28 17:45:00,
2013-04-28 13:52:00,54.3,51.1,30.08,North,0,0.0,0.0,89,0.12,,,2.81,WUHU21623XXSP,2013-04-28 17:52:00,
2013-04-28 13:57:00,54.3,51.1,30.08,North,0,0.0,0.0,89,0.12,,,2.83,WUHU21623XXSP,2013-04-28 17:57:00,
2013-04-28 14:02:00,54.5,51.3,30.08,North,0,0.0,0.0,89,0.12,,,2.83,WUHU21623XXSP,2013-04-28 18:02:00,
2013-04-28 14:07:00,54.7,51.5,30.08,North,0,0.0,0.0,89,0.12,,,2.83,WUHU21623XXSP,2013-04-28 18:07:00,
2013-04-28 14:12:00,54.7,51.5,30.08,North,0,0.0,0.0,89,0.12,,,2.83,WUHU21623XXSP,2013-04-28 18:12:00,
2013-04-28 14:17:00,54.9,51.7,30.07,North,0,0.0,0.0,89,0.12,,,2.83,WUHU21623XXSP,2013-04-28 18:17:00,
2013-04-28 14:22:00,54.9,51.7,30.07,North,0,0.0,0.0,89,0.12,,,2.85,WUHU21623XXSP,2013-04-28 18:22:00,
2013-04-28 14:27:00,55.0,51.8,30.07,North,0,0.0,0.0,89,0.08,,,2.85,WUHU21623XXSP,2013-04-28 18:27:00,
2013-04-28 14:32:00,54.9,51.7,30.07,North,0,0.0,0.0,89,0.10,,,2.87,WUHU21623XXSP,2013-04-28 18:32:00,
2013-04-28 14:37:00,55.0,51.8,30.08,North,0,0.0,0.0,89,0.10,,,2.89,WUHU21623XXSP,2013-04-28 18:37:00,
2013-04-28 14:43:00,55.0,51.8,30.07,North,0,0.0,0.0,89,0.10,,,2.89,WUHU21623XXSP,2013-04-28 18:43:00,
2013-04-28 14:48:00,55.0,51.8,30.08,North,0,0.0,0.0,89,0.12,,,2.91,WUHU21623XXSP,2013-04-28 18:48:00,
2013-04-28 14:53:00,55.2,52.0,30.08,North,0,0.0,0.0,89,0.12,,,2.94,WUHU21623XXSP,2013-04-28 18:53:00,
2013-04-28 14:58:00,55.2,52.0,30.08,North,0,0.0,0.0,89,0.12,,,2.96,WUHU21623XXSP,2013-04-28 18:58:00,
2013-04-28 15:03:00,55.2,52.0,30.08,North,0,0.0,0.0,89,0.14,,,2.98,WUHU21623XXSP,2013-04-28 19:03:00,
2013-04-28 15:08:00,55.6,52.4,30.08,North,0,0.0,0.0,89,0.16,,,2.98,WUHU21623XXSP,2013-04-28 19:08:00,
2013-04-28 15:13:00,55.6,52.4,30.08,North,0,0.0,0.0,89,0.18,,,3.02,WUHU21623XXSP,2013-04-28 19:13:00,
2013-04-28 15:18:00,55.8,52.6,30.07,North,0,0.0,0.0,89,0.18,,,3.02,WUHU21623XXSP,2013-04-28 19:18:00,
2013-04-28 15:23:00,55.9,52.7,30.07,North,0,0.0,0.0,89,0.18,,,3.04,WUHU21623XXSP,2013-04-28 19:23:00,
2013-04-28 15:28:00,55.9,52.7,30.07,North,0,0.0,0.0,89,0.18,,,3.04,WUHU21623XXSP,2013-04-28 19:28:00,
2013-04-28 15:33:00,55.9,52.7,30.07,North,0,0.0,0.0,89,0.16,,,3.06,WUHU21623XXSP,2013-04-28 19:33:00,
2013-04-28 15:38:00,55.9,52.7,30.06,North,0,0.0,0.0,89,0.18,,,3.06,WUHU21623XXSP,2013-04-28 19:38:00,
2013-04-28 15:43:00,55.9,52.7,30.05,North,0,0.0,0.0,89,0.14,,,3.08,WUHU21623XXSP,2013-04-28 19:43:00,
2013-04-28 15:48:00,55.9,52.7,30.06,North,0,0.0,0.0,89,0.16,,,3.10,WUHU21623XXSP,2013-04-28 19:48:00,
2013-04-28 15:53:00,55.8,52.6,30.06,North,0,0.0,0.0,89,0.16,,,3.10,WUHU21623XXSP,2013-04-28 19:53:00,
2013-04-28 15:58:00,55.8,52.6,30.06,North,0,0.0,0.0,89,0.16,,,3.12,WUHU21623XXSP,2013-04-28 19:58:00,
2013-04-28 16:03:00,55.8,52.6,30.06,North,0,0.0,0.0,89,0.16,,,3.14,WUHU21623XXSP,2013-04-28 20:03:00,
2013-04-28 16:08:00,55.8,52.6,30.07,North,0,0.0,0.0,89,0.14,,,3.14,WUHU21623XXSP,2013-04-28 20:08:00,
2013-04-28 16:13:00,55.8,52.6,30.07,North,0,0.0,0.0,89,0.14,,,3.16,WUHU21623XXSP,2013-04-28 20:13:00,
2013-04-28 16:18:00,55.8,52.6,30.06,North,0,0.0,0.0,89,0.12,,,3.16,WUHU21623XXSP,2013-04-28 20:18:00,
2013-04-28 16:23:00,55.6,52.4,30.05,North,0,0.0,0.0,89,0.16,,,3.20,WUHU21623XXSP,2013-04-28 20:23:00,
2013-04-28 16:28:00,55.8,52.6,30.06,North,0,0.0,0.0,89,0.18,,,3.22,WUHU21623XXSP,2013-04-28 20:28:00,
2013-04-28 16:33:00,55.8,52.6,30.05,North,0,0.0,0.0,89,0.16,,,3.24,WUHU21623XXSP,2013-04-28 20:33:00,
2013-04-28 16:38:00,55.9,52.7,30.06,North,0,0.0,0.0,89,0.18,,,3.24,WUHU21623XXSP,2013-04-28 20:38:00,
2013-04-28 16:43:00,55.9,52.7,30.06,North,0,0.0,0.0,89,0.16,,,3.26,WUHU21623XXSP,2013-04-28 20:43:00,
2013-04-28 16:48:00,55.9,52.7,30.06,North,0,0.0,0.0,89,0.18,,,3.28,WUHU21623XXSP,2013-04-28 20:48:00,
2013-04-28 16:53:00,55.9,52.7,30.06,North,0,0.0,0.0,89,0.16,,,3.28,WUHU21623XXSP,2013-04-28 20:53:00,
2013-04-28 16:58:00,55.9,52.7,30.06,North,0,0.0,0.0,89,0.16,,,3.28,WUHU21623XXSP,2013-04-28 20:58:00,
2013-04-28 17:03:00,55.8,52.6,30.06,North,0,0.0,0.0,89,0.16,,,3.28,WUHU21623XXSP,2013-04-28 21:03:00,
2013-04-28 17:08:00,55.9,52.7,30.07,North,0,0.0,0.0,89,0.16,,,3.30,WUHU21623XXSP,2013-04-28 21:08:00,
2013-04-28 17:13:00,55.8,52.6,30.06,North,0,0.0,0.0,89,0.14,,,3.30,WUHU21623XXSP,2013-04-28 21:13:00,
2013-04-28 17:18:00,55.8,52.6,30.06,North,0,0.0,0.0,89,0.14,,,3.30,WUHU21623XXSP,2013-04-28 21:18:00,
2013-04-28 17:23:00,55.8,52.6,30.06,North,0,0.0,0.0,89,0.12,,,3.32,WUHU21623XXSP,2013-04-28 21:23:00,
2013-04-28 17:28:00,55.6,52.4,30.07,North,0,0.0,0.0,89,0.10,,,3.32,WUHU21623XXSP,2013-04-28 21:28:00,
2013-04-28 17:33:00,55.6,52.4,30.06,North,0,0.0,0.0,89,0.10,,,3.34,WUHU21623XXSP,2013-04-28 21:33:00,
2013-04-28 17:38:00,55.8,52.4,30.07,North,0,0.0,0.0,89,0.12,,,3.38,WUHU21623XXSP,2013-04-28 21:38:00,
2013-04-28 17:43:00,55.6,52.4,30.07,North,0,0.0,0.0,89,0.10,,,3.38,WUHU21623XXSP,2013-04-28 21:43:00,
2013-04-28 17:48:00,55.6,52.4,30.08,North,0,0.0,0.0,89,0.12,,,3.40,WUHU21623XXSP,2013-04-28 21:48:00,
2013-04-28 17:53:00,55.6,52.4,30.08,North,0,0.0,0.0,89,0.12,,,3.40,WUHU21623XXSP,2013-04-28 21:53:00,
2013-04-28 18:01:00,55.6,52.4,30.08,North,0,0.0,0.0,89,0.14,,,3.40,WUHU21623XXSP,2013-04-28 22:01:00,
2013-04-28 18:10:00,55.6,52.4,30.08,North,0,0.0,0.0,89,0.18,,,3.47,WUHU21623XXSP,2013-04-28 22:10:00,
2013-04-28 18:15:00,55.4,52.2,30.07,North,0,0.0,0.0,89,0.18,,,3.49,WUHU21623XXSP,2013-04-28 22:15:00,
2013-04-28 18:20:00,55.4,52.0,30.07,North,0,0.0,0.0,89,0.18,,,3.49,WUHU21623XXSP,2013-04-28 22:20:00,
2013-04-28 18:25:00,55.4,52.5,30.06,North,0,0.0,0.0,90,0.16,,,3.51,WUHU21623XXSP,2013-04-28 22:25:00,
2013-04-28 18:30:00,55.4,52.5,30.06,North,0,0.0,0.0,90,0.16,,,3.53,WUHU21623XXSP,2013-04-28 22:30:00,
2013-04-28 18:36:00,55.4,52.5,30.06,North,0,0.0,0.0,90,0.14,,,3.53,WUHU21623XXSP,2013-04-28 22:36:00,
2013-04-28 18:41:00,55.2,52.5,30.05,North,0,0.0,0.0,90,0.14,,,3.53,WUHU21623XXSP,2013-04-28 22:41:00,
2013-04-28 18:46:00,55.2,52.3,30.05,North,0,0.0,0.0,90,0.12,,,3.53,WUHU21623XXSP,2013-04-28 22:46:00,
2013-04-28 18:51:00,55.4,52.3,30.05,North,0,0.0,0.0,90,0.14,,,3.55,WUHU21623XXSP,2013-04-28 22:51:00,
2013-04-28 18:56:00,55.2,52.3,30.05,North,0,0.0,0.0,90,0.14,,,3.57,WUHU21623XXSP,2013-04-28 22:56:00,
2013-04-28 19:01:00,55.2,52.3,30.04,North,0,0.0,0.0,90,0.12,,,3.57,WUHU21623XXSP,2013-04-28 23:01:00,
2013-04-28 19:06:00,55.2,52.3,30.04,North,0,0.0,0.0,90,0.10,,,3.57,WUHU21623XXSP,2013-04-28 23:06:00,
2013-04-28 19:11:00,55.2,52.3,30.03,North,0,0.0,0.0,90,0.08,,,3.57,WUHU21623XXSP,2013-04-28 23:11:00,
2013-04-28 19:16:00,55.2,52.3,30.02,North,0,0.0,0.0,90,0.08,,,3.57,WUHU21623XXSP,2013-04-28 23:16:00,
2013-04-28 19:21:00,55.2,52.3,30.01,North,0,0.0,0.0,90,0.08,,,3.59,WUHU21623XXSP,2013-04-28 23:21:00,
2013-04-28 19:26:00,55.2,52.3,29.99,North,0,0.0,0.0,90,0.06,,,3.59,WUHU21623XXSP,2013-04-28 23:26:00,
2013-04-28 19:31:00,55.2,52.3,29.98,NNE,22,0.0,0.0,90,0.08,,,3.61,WUHU21623XXSP,2013-04-28 23:31:00,
2013-04-28 19:36:00,55.2,52.3,29.99,NNE,22,0.0,0.0,90,0.08,,,3.61,WUHU21623XXSP,2013-04-28 23:36:00,
2013-04-28 19:41:00,55.2,52.3,30.01,North,0,0.0,0.0,90,0.08,,,3.61,WUHU21623XXSP,2013-04-28 23:41:00,
2013-04-28 19:46:00,55.2,52.3,30.00,North,0,0.0,0.0,90,0.06,,,3.61,WUHU21623XXSP,2013-04-28 23:46:00,
2013-04-28 19:51:00,55.2,52.3,30.01,North,0,0.0,0.0,90,0.06,,,3.61,WUHU21623XXSP,2013-04-28 23:51:00,
2013-04-28 19:56:00,55.2,52.3,30.02,North,0,0.0,0.0,90,0.04,,,3.61,WUHU21623XXSP,2013-04-28 23:56:00,
2013-04-28 20:01:00,55.2,52.3,30.02,North,0,0.0,0.0,90,0.04,,,3.61,WUHU21623XXSP,2013-04-29 00:01:00,
2013-04-28 20:06:00,55.2,52.3,30.01,North,0,0.0,0.0,90,0.04,,,3.61,WUHU21623XXSP,2013-04-29 00:06:00,
2013-04-28 20:11:00,55.2,52.3,30.02,North,0,0.0,0.0,90,0.04,,,3.61,WUHU21623XXSP,2013-04-29 00:11:00,
2013-04-28 20:16:00,55.0,52.2,30.02,North,0,0.0,0.0,90,0.04,,,3.61,WUHU21623XXSP,2013-04-29 00:16:00,
2013-04-28 20:21:00,55.0,52.2,30.02,North,0,0.0,0.0,90,0.02,,,3.61,WUHU21623XXSP,2013-04-29 00:21:00,
2013-04-28 20:26:00,55.0,52.2,30.02,North,0,0.0,0.0,90,0.00,,,3.61,WUHU21623XXSP,2013-04-29 00:26:00,
2013-04-28 20:31:00,54.7,51.8,30.03,North,0,0.0,0.0,90,0.00,,,3.61,WUHU21623XXSP,2013-04-29 00:31:00,
2013-04-28 20:36:00,54.7,51.8,30.03,North,0,0.0,0.0,90,0.00,,,3.61,WUHU21623XXSP,2013-04-29 00:36:00,
2013-04-28 20:41:00,54.7,51.8,30.02,North,0,0.0,0.0,90,0.00,,,3.61,WUHU21623XXSP,2013-04-29 00:41:00,
2013-04-28 20:46:00,54.7,51.8,30.00,North,0,0.0,0.0,90,0.00,,,3.61,WUHU21623XXSP,2013-04-29 00:46:00,
2013-04-28 20:51:00,54.7,51.8,29.99,North,0,0.0,0.0,90,0.00,,,3.61,WUHU21623XXSP,2013-04-29 00:51:00,
2013-04-28 20:56:00,54.7,51.8,30.00,North,0,0.0,0.0,90,0.00,,,3.61,WUHU21623XXSP,2013-04-29 00:56:00,
2013-04-28 21:01:00,54.7,51.6,30.00,North,0,0.0,0.0,90,0.00,,,3.61,WUHU21623XXSP,2013-04-29 01:01:00,
2013-04-28 21:06:00,54.5,51.6,30.01,North,0,0.0,0.0,90,0.00,,,3.61,WUHU21623XXSP,2013-04-29 01:06:00,
2013-04-28 21:11:00,54.5,51.6,30.02,North,0,0.0,0.0,90,0.00,,,3.61,WUHU21623XXSP,2013-04-29 01:11:00,
2013-04-28 21:16:00,54.5,51.6,30.01,North,0,0.0,0.0,90,0.00,,,3.61,WUHU21623XXSP,2013-04-29 01:16:00,
2013-04-28 21:21:00,54.5,51.6,30.01,North,0,0.0,0.0,90,0.00,,,3.61,WUHU21623XXSP,2013-04-29 01:21:00,
2013-04-28 21:26:00,54.5,51.6,30.01,North,0,0.0,0.0,90,0.00,,,3.61,WUHU21623XXSP,2013-04-29 01:26:00,
2013-04-28 21:31:00,54.5,51.6,30.01,North,0,0.0,0.0,90,0.00,,,3.61,WUHU21623XXSP,2013-04-29 01:31:00,
2013-04-28 21:36:00,54.5,51.6,30.01,North,0,0.0,0.0,90,0.00,,,3.61,WUHU21623XXSP,2013-04-29 01:36:00,
2013-04-28 21:41:00,54.5,51.6,30.02,North,0,0.0,0.0,90,0.00,,,3.61,WUHU21623XXSP,2013-04-29 01:41:00,
2013-04-28 21:46:00,54.5,51.6,30.02,North,0,0.0,0.0,90,0.00,,,3.61,WUHU21623XXSP,2013-04-29 01:46:00,
2013-04-28 21:51:00,54.3,51.4,30.02,North,0,0.0,0.0,90,0.00,,,3.61,WUHU21623XXSP,2013-04-29 01:51:00,
2013-04-28 21:56:00,54.3,51.4,30.02,North,0,0.0,0.0,90,0.00,,,3.61,WUHU21623XXSP,2013-04-29 01:56:00,
2013-04-28 22:01:00,54.3,51.4,30.03,North,0,0.0,0.0,90,0.00,,,3.61,WUHU21623XXSP,2013-04-29 02:01:00,
2013-04-28 22:06:00,54.3,51.4,30.04,North,0,0.0,0.0,90,0.00,,,3.61,WUHU21623XXSP,2013-04-29 02:06:00,
2013-04-28 22:11:00,54.3,51.4,30.04,North,0,0.0,0.0,90,0.00,,,3.61,WUHU21623XXSP,2013-04-29 02:11:00,
2013-04-28 22:16:00,54.5,51.6,30.04,North,0,0.0,0.0,90,0.00,,,3.61,WUHU21623XXSP,2013-04-29 02:16:00,
2013-04-28 22:21:00,54.5,51.6,30.04,North,0,0.0,0.0,90,0.00,,,3.61,WUHU21623XXSP,2013-04-29 02:21:00,
2013-04-28 22:27:00,54.5,51.6,30.04,North,0,0.0,0.0,90,0.00,,,3.61,WUHU21623XXSP,2013-04-29 02:27:00,
2013-04-28 22:32:00,54.5,51.6,30.04,North,0,0.0,0.0,90,0.00,,,3.61,WUHU21623XXSP,2013-04-29 02:32:00,
2013-04-28 22:37:00,54.5,51.6,30.04,North,0,0.0,0.0,90,0.00,,,3.61,WUHU21623XXSP,2013-04-29 02:37:00,
2013-04-28 22:42:00,54.5,51.6,30.04,North,0,0.0,0.0,90,0.00,,,3.61,WUHU21623XXSP,2013-04-29 02:42:00,
2013-04-28 22:47:00,54.5,51.6,30.03,North,0,0.0,0.0,90,0.00,,,3.61,WUHU21623XXSP,2013-04-29 02:47:00,
2013-04-28 22:52:00,54.5,51.6,30.04,North,0,0.0,0.0,90,0.00,,,3.61,WUHU21623XXSP,2013-04-29 02:52:00,
2013-04-28 22:57:00,54.5,51.6,30.04,North,0,0.0,0.0,90,0.00,,,3.61,WUHU21623XXSP,2013-04-29 02:57:00,
2013-04-28 23:02:00,54.5,51.6,30.04,North,0,0.0,0.0,90,0.00,,,3.61,WUHU21623XXSP,2013-04-29 03:02:00,
2013-04-28 23:07:00,54.5,51.6,30.04,North,0,0.0,0.0,90,0.00,,,3.61,WUHU21623XXSP,2013-04-29 03:07:00,
2013-04-28 23:12:00,54.5,51.6,30.04,North,0,0.0,0.0,90,0.00,,,3.61,WUHU21623XXSP,2013-04-29 03:12:00,
2013-04-28 23:17:00,54.3,51.4,30.03,North,0,0.0,0.0,90,0.00,,,3.61,WUHU21623XXSP,2013-04-29 03:17:00,
2013-04-28 23:22:00,54.3,51.4,30.04,North,0,0.0,0.0,90,0.00,,,3.61,WUHU21623XXSP,2013-04-29 03:22:00,
2013-04-28 23:27:00,54.3,51.4,30.03,North,0,0.0,0.0,90,0.00,,,3.61,WUHU21623XXSP,2013-04-29 03:27:00,
2013-04-28 23:32:00,54.3,51.4,30.02,North,0,0.0,0.0,90,0.00,,,3.61,WUHU21623XXSP,2013-04-29 03:32:00,
2013-04-28 23:37:00,54.3,51.4,30.01,North,0,0.0,0.0,90,0.00,,,3.61,WUHU21623XXSP,2013-04-29 03:37:00,
2013-04-28 23:42:00,54.3,51.4,30.02,North,0,0.0,0.0,90,0.00,,,3.61,WUHU21623XXSP,2013-04-29 03:42:00,
2013-04-28 23:47:00,54.3,51.4,30.02,North,0,0.0,0.0,90,0.00,,,3.61,WUHU21623XXSP,2013-04-29 03:47:00,
2013-04-28 23:52:00,54.3,51.4,30.03,North,0,0.0,0.0,90,0.00,,,3.61,WUHU21623XXSP,2013-04-29 03:52:00,
2013-04-28 23:57:00,54.1,51.3,30.03,North,0,0.0,0.0,90,0.00,,,3.61,WUHU21623XXSP,2013-04-29 03:57:00,